GFSSGP_500_spd_021.txt.gz
Wind_Speed
11 13 16 17 17 13 15 13 11 16 26 30 34 38 39 40 42 37 34 36 37 37 33 31 32 33 32 34 34 35 36 37 37 37 37 39 43 45 46 44 43 42 41 39 38 38 38 38 38
13 15 17 18 20 16 10 13 6 19 28 36 37 39 44 45 44 38 39 36 34 35 30 30 33 36 33 32 35 37 38 37 37 38 39 41 43 46 48 46 43 42 41 41 40 41 40 40 40
14 18 22 21 19 18 10 15 16 23 29 34 40 43 49 42 39 34 37 37 35 35 31 30 31 32 35 35 35 36 37 38 38 41 43 44 46 46 44 43 43 42 42 43 42 43 44 43 42
18 23 25 24 17 9 6 19 17 25 28 39 43 48 45 42 35 31 35 38 37 33 34 33 32 32 31 33 34 36 37 38 40 43 45 46 45 43 42 42 42 41 41 42 42 44 46 47 46
23 28 28 23 14 10 14 20 25 27 34 30 41 49 46 41 36 35 37 35 37 36 37 36 35 35 33 33 34 36 37 38 41 45 46 44 42 41 42 37 35 36 38 41 42 42 46 46 48
24 28 32 26 15 14 19 24 28 25 23 36 41 44 45 42 37 36 35 34 38 39 32 32 33 33 33 35 38 39 39 41 43 44 43 41 40 42 39 40 41 42 41 39 40 41 44 46 47
33 37 38 29 20 10 16 30 27 26 20 29 32 36 41 40 39 38 36 37 33 33 31 29 29 30 32 34 34 34 38 42 43 42 41 40 40 42 42 42 42 41 39 40 39 37 41 43 46
31 35 31 25 23 9 10 33 21 13 23 29 39 38 40 40 35 37 42 36 28 29 26 26 25 25 28 30 30 32 37 40 40 40 39 40 40 39 42 43 41 38 38 41 40 37 41 41 45
33 33 33 29 28 17 19 23 25 24 29 37 48 41 39 39 39 41 30 28 19 23 27 24 22 26 30 34 32 34 37 39 40 39 37 37 37 37 37 36 35 36 36 37 40 40 39 39 42
38 40 40 32 26 21 22 25 29 31 33 38 39 43 42 35 38 41 35 33 28 27 27 26 27 28 32 33 33 36 36 37 37 34 32 34 33 33 31 30 29 28 30 32 35 37 39 36 39
36 41 34 25 29 19 21 19 23 31 32 33 36 36 34 33 30 24 22 27 25 28 28 29 27 29 32 32 33 37 36 34 33 34 34 31 31 30 28 26 25 28 29 30 31 36 35 35 36
45 43 35 35 39 26 21 20 23 28 27 30 35 29 30 23 22 22 26 26 27 27 28 28 28 30 31 32 34 34 33 29 30 31 30 30 30 27 24 21 22 23 27 24 27 28 32 33 34
53 54 49 46 33 33 27 22 26 22 26 31 31 28 26 19 19 19 24 24 27 28 30 29 31 30 31 32 34 32 31 28 25 31 31 30 28 25 20 19 21 21 20 18 21 25 30 30 32
57 58 55 41 35 30 27 25 24 21 19 28 26 22 20 22 25 22 24 26 30 30 33 32 31 29 29 33 32 33 27 27 28 34 27 29 25 23 18 18 21 17 15 15 17 23 27 29 30
62 55 49 36 34 23 25 27 20 21 20 25 30 25 21 24 23 23 23 25 29 30 32 31 31 28 28 30 29 28 24 31 32 32 30 25 21 21 17 16 19 11 13 14 14 20 25 25 30
38 36 33 29 21 17 19 23 17 19 23 29 28 22 28 32 28 22 23 26 29 31 32 30 30 28 29 29 28 28 28 28 27 29 28 22 23 20 15 14 14 10 11 16 15 21 23 25 26
28 26 23 13 12 12 12 21 23 26 20 24 27 30 32 36 33 25 24 27 30 31 30 30 28 26 27 27 28 26 27 25 27 31 26 22 22 20 13 13 11 10 10 17 19 22 25 24 24
17 20 17 9 5 8 12 27 26 26 22 27 32 33 34 36 34 26 24 27 28 28 28 27 27 26 26 26 26 26 22 26 28 25 21 23 21 20 9 10 11 8 8 15 20 22 27 24 24
23 21 16 16 4 18 25 23 19 25 25 26 26 21 22 31 33 23 23 23 24 25 26 24 24 25 25 25 23 25 22 24 26 23 22 22 22 20 6 6 4 3 9 13 22 28 28 24 26
23 23 19 14 12 26 16 20 20 32 26 24 24 24 27 26 25 18 20 22 21 24 24 24 22 23 23 23 21 22 21 22 23 22 20 22 23 16 4 4 3 3 9 11 24 30 26 27 28
25 24 15 20 20 24 20 25 28 32 25 22 21 24 30 31 19 19 21 20 22 24 21 21 20 21 21 21 18 20 22 22 20 20 20 21 19 15 3 3 3 7 9 13 23 24 21 23 29
29 20 20 23 23 31 29 35 32 24 18 17 20 24 32 37 27 23 21 19 23 21 20 18 19 19 20 18 16 18 20 24 19 20 21 21 18 14 4 3 5 8 11 13 19 24 22 26 25
21 23 22 18 15 18 25 29 16 21 21 18 29 22 32 38 35 24 21 18 21 18 18 17 18 17 18 16 14 16 16 21 15 21 23 21 17 13 4 4 5 5 12 15 18 19 21 26 24
22 24 21 15 19 28 23 22 3 8 14 19 25 30 34 39 32 22 17 17 18 18 15 16 16 16 16 14 12 13 14 17 20 20 19 22 12 15 5 5 8 12 12 16 16 17 22 25 24
31 24 26 26 31 34 23 23 3 8 12 18 24 27 29 25 13 16 12 16 14 15 13 15 15 15 15 12 11 13 13 14 20 19 17 17 10 13 9 10 9 12 13 15 17 19 21 23 22
32 26 33 31 32 25 12 22 9 17 15 16 24 24 25 25 16 13 11 16 15 11 12 15 15 14 12 8 9 12 10 12 17 20 18 18 12 7 11 8 13 14 15 16 17 18 19 21 22
30 33 24 29 27 21 11 15 4 15 14 20 25 25 26 20 15 13 13 15 14 9 12 14 13 12 12 6 7 9 12 10 13 19 17 16 15 8 7 10 10 16 16 15 15 15 16 18 20
34 27 29 34 33 32 24 22 13 19 24 25 29 27 28 21 16 13 11 12 10 7 12 14 13 14 11 3 7 9 11 11 13 19 14 17 18 12 13 12 11 15 16 15 14 12 16 18 19
35 37 38 33 31 27 22 23 17 21 22 25 23 28 28 16 15 12 12 9 5 7 12 14 15 14 9 5 7 9 10 11 13 17 14 10 15 15 15 13 15 19 18 15 15 17 21 20 19
34 37 39 41 36 25 21 15 17 20 23 26 22 26 27 12 12 10 3 7 2 7 12 14 15 14 10 9 7 8 11 11 14 16 14 13 9 9 16 15 20 18 17 19 18 18 18 19 22

GFSSGP_500_spd_024.txt.gz
Wind_Speed
12 9 6 8 10 13 14 17 22 20 18 26 28 30 28 28 30 38 45 45 42 39 36 36 35 35 35 31 30 30 29 29 32 32 33 34 35 35 36 37 38 39 39 38 38 38 37 37 37
15 15 11 12 17 19 20 20 20 21 25 25 30 27 23 30 34 36 32 34 35 36 34 34 35 36 35 32 31 30 29 30 29 32 34 34 36 38 40 42 42 40 39 37 36 36 36 36 39
19 19 15 17 21 22 19 21 20 21 20 24 32 34 31 30 33 32 34 33 33 34 35 37 37 37 36 34 33 32 31 31 32 33 35 36 38 39 41 44 44 40 39 39 39 38 37 38 38
23 23 19 17 23 19 18 24 27 21 24 31 32 36 34 35 34 34 34 35 36 35 35 37 34 32 30 29 31 31 32 34 34 34 35 38 40 42 43 42 41 41 39 38 37 39 40 39 39
24 23 20 19 22 23 24 31 19 24 30 31 33 33 37 37 35 37 38 37 39 36 38 32 32 31 31 29 29 30 32 33 33 34 38 40 42 43 42 40 38 40 39 36 37 38 39 40 41
26 26 24 28 30 25 31 28 25 21 25 27 28 31 34 38 38 38 38 36 37 35 29 30 30 30 31 30 29 34 37 37 35 37 39 41 41 40 39 37 39 42 42 42 43 42 43 42 42
30 33 32 32 29 24 36 30 29 29 27 25 28 32 37 36 40 37 37 36 34 24 23 26 27 30 33 34 34 34 35 35 38 40 38 38 37 37 37 39 41 41 42 43 45 43 43 43 43
34 38 37 35 29 23 32 35 28 24 20 20 27 36 37 38 34 35 33 32 26 23 25 32 35 36 35 35 34 32 31 33 37 37 35 35 36 36 38 38 39 39 40 42 41 41 42 44 43
40 43 35 26 29 34 30 35 33 25 27 33 37 40 39 32 28 29 24 15 19 20 24 29 32 32 31 31 33 32 32 33 35 32 32 33 34 33 34 33 34 35 35 35 37 39 41 44 44
46 44 33 28 35 33 22 26 23 27 30 34 39 41 36 25 25 23 20 21 22 24 26 27 29 30 31 30 31 31 31 33 32 30 28 30 29 31 31 33 33 34 34 33 33 33 35 41 45
43 45 35 36 39 31 33 29 21 24 26 31 34 31 32 26 22 20 22 22 26 26 29 30 31 33 31 31 30 31 32 30 32 27 25 30 32 30 32 34 32 29 27 29 33 35 37 40 40
47 46 42 42 44 41 42 41 25 21 27 28 28 26 25 21 16 21 22 24 25 28 31 33 34 32 30 31 29 30 30 30 27 26 30 34 27 31 33 30 26 25 26 27 30 32 35 36 38
52 49 49 48 48 49 45 42 23 23 23 28 22 22 24 19 16 22 23 25 30 30 33 33 33 30 30 29 30 30 29 27 23 28 30 32 31 32 29 28 25 24 25 27 26 26 28 29 34
54 56 60 55 55 52 50 34 27 20 20 21 21 24 20 16 17 21 24 22 30 30 32 33 33 31 29 27 29 30 28 26 28 27 27 28 31 25 25 28 22 21 24 25 21 20 22 26 31
63 61 56 52 49 42 32 27 21 15 18 15 22 27 20 21 24 25 18 20 26 30 31 34 33 30 28 27 27 27 27 27 27 26 28 28 24 23 25 24 18 19 20 19 17 16 19 24 27
59 56 51 40 30 11 27 23 12 14 15 16 21 24 27 27 28 25 17 20 24 30 30 32 32 28 28 27 28 27 26 26 26 27 28 21 22 22 24 20 16 16 14 14 14 13 18 22 23
35 32 25 8 12 12 25 19 13 12 11 17 17 25 34 29 29 31 23 24 26 30 30 31 30 27 27 28 27 27 25 26 27 27 24 22 22 22 25 15 13 14 14 11 13 14 21 22 20
17 18 13 10 9 18 20 17 15 12 17 11 14 27 28 22 25 26 28 24 25 26 28 30 28 26 26 25 27 26 25 27 27 27 25 24 22 23 19 11 12 11 8 10 16 18 22 20 19
20 22 21 16 22 24 20 14 18 16 12 15 22 23 21 20 17 20 23 19 24 25 27 31 28 25 25 23 25 23 24 27 26 24 24 21 20 18 12 7 10 8 7 12 19 18 23 22 23
25 26 19 25 26 24 20 14 12 12 21 18 26 21 21 30 25 21 23 24 23 24 27 28 27 24 23 22 23 21 22 24 22 19 20 17 15 16 4 5 6 3 6 11 18 20 24 21 22
29 28 17 21 25 27 22 20 18 14 18 20 25 24 22 27 27 27 27 24 25 24 26 24 24 23 21 21 19 18 21 21 18 22 19 15 15 11 2 3 4 1 5 7 20 22 24 21 22
36 19 20 21 26 23 24 25 20 20 22 27 29 28 24 23 28 28 27 25 25 24 22 25 21 20 19 19 16 16 19 19 19 20 18 16 15 8 2 5 5 5 8 13 21 24 18 23 25
25 26 24 22 23 26 30 31 22 23 20 25 25 14 14 21 24 25 21 22 21 21 21 21 20 17 17 18 14 14 18 19 21 20 15 13 13 9 3 3 4 6 10 16 20 19 18 22 20
24 32 28 27 29 37 25 34 10 16 19 15 6 9 12 19 28 20 19 17 18 17 21 18 18 16 16 16 13 14 18 15 20 21 12 9 11 8 0 4 7 12 13 18 20 20 20 21 18
38 36 36 36 40 32 23 22 8 9 13 12 12 13 14 18 30 19 17 14 16 18 17 17 16 14 14 12 10 12 17 15 18 16 12 9 5 8 4 8 10 12 16 18 20 21 22 21 21
43 41 40 39 34 26 23 20 9 7 14 17 15 16 18 22 28 16 15 14 16 17 14 15 13 11 13 10 9 11 15 16 16 15 11 11 3 8 7 8 11 12 15 17 19 21 21 23 23
41 39 33 33 26 29 18 18 18 11 11 9 13 15 17 20 23 15 13 13 12 13 11 13 12 12 12 9 7 11 13 15 13 16 8 17 9 4 7 10 13 14 15 17 18 20 21 22 20
33 33 35 38 34 29 24 22 19 14 14 11 10 15 16 21 20 16 15 14 11 9 9 10 10 10 10 4 7 10 10 13 13 13 10 16 15 12 9 11 17 16 17 16 17 18 19 21 22
36 38 41 31 26 27 21 20 12 16 16 14 12 16 20 22 16 15 14 10 9 6 7 8 10 9 9 5 7 9 11 9 11 12 6 11 14 14 11 14 20 17 15 16 15 17 19 19 20
29 31 33 33 31 29 23 17 15 23 19 15 13 14 16 22 13 12 6 6 5 3 5 8 11 8 10 8 8 10 11 12 11 13 11 12 12 14 13 15 16 16 14 14 14 19 18 20 20

GFSSGP_500_spd_030.txt.gz
Wind_Speed
15 17 18 16 17 19 19 21 23 24 25 25 26 29 28 28 29 30 30 32 33 35 36 36 38 37 36 37 37 37 38 37 35 36 36 34 34 33 32 33 33 33 33 32 33 32 31 31 32
19 19 21 19 19 23 25 26 26 26 25 27 29 31 28 24 26 28 31 32 31 34 35 36 36 37 39 40 40 38 34 33 33 34 36 36 34 34 34 33 35 34 35 35 36 36 35 33 33
22 22 23 23 22 25 29 28 25 28 29 30 32 31 33 30 30 33 27 28 32 35 35 36 35 35 35 34 34 35 36 37 36 35 35 35 35 34 34 34 34 34 36 37 38 38 37 35 35
25 27 27 26 25 26 29 30 28 32 32 31 34 32 26 27 30 29 27 30 33 33 35 36 36 37 38 34 31 31 32 33 35 37 37 37 36 35 36 34 33 36 38 39 40 40 38 37 36
27 29 29 27 28 30 32 33 34 37 34 33 36 37 33 34 33 29 27 29 31 32 34 37 36 35 33 28 29 32 36 36 35 34 33 34 35 35 37 36 36 37 39 39 37 38 38 38 38
27 30 30 26 25 28 32 36 40 40 35 32 38 37 34 29 27 26 30 28 30 32 31 29 30 27 27 28 29 30 33 35 37 38 40 40 40 40 39 37 39 39 37 36 36 35 37 38 38
32 33 30 26 25 28 35 43 41 38 33 34 35 34 31 28 31 32 29 27 31 32 28 29 31 30 30 32 33 37 38 39 40 40 41 42 41 38 37 37 38 35 33 34 34 36 36 38 40
36 38 36 34 29 32 33 39 38 42 32 35 29 34 36 32 34 31 29 28 31 33 30 30 32 32 34 36 38 39 38 38 38 37 35 37 38 34 34 34 32 32 34 36 37 35 36 37 39
39 45 39 34 32 36 43 38 39 43 38 34 34 39 41 36 30 29 29 29 31 31 32 32 32 34 37 38 40 42 41 40 40 39 37 37 37 36 36 32 31 35 34 33 32 33 35 36 39
45 45 41 39 41 41 43 42 38 43 41 33 38 40 43 36 30 28 28 29 31 29 31 34 34 37 38 40 42 41 38 38 35 34 34 32 33 29 27 30 33 33 35 34 36 37 37 37 37
46 49 39 45 44 46 47 46 47 46 41 34 39 44 43 36 29 25 27 28 28 29 31 37 38 37 37 39 40 38 35 33 32 32 30 30 29 28 31 32 31 34 34 38 38 36 34 34 35
50 51 45 47 46 51 49 49 47 49 42 40 44 49 46 31 29 22 25 26 24 30 34 37 39 38 37 37 37 35 33 32 32 31 30 30 30 31 29 31 36 37 37 33 31 33 32 32 33
54 48 50 53 55 53 51 49 51 49 41 47 48 53 43 30 30 22 25 22 26 31 32 31 35 39 37 35 34 33 33 32 32 32 31 30 32 32 32 34 33 32 31 31 33 33 30 31 32
56 53 55 57 55 50 49 51 59 51 45 50 52 57 34 29 24 20 19 22 23 24 23 28 32 37 33 33 34 34 33 33 33 34 31 30 32 33 35 34 32 32 30 32 34 31 28 29 30
62 61 59 59 54 52 53 56 60 53 57 60 56 43 26 31 26 20 18 19 22 21 23 27 31 34 33 33 35 34 33 33 34 34 31 32 35 34 34 34 33 31 31 33 32 27 26 28 28
65 64 60 54 50 49 53 56 60 54 54 49 40 35 26 27 24 21 16 14 15 20 23 27 32 35 33 34 33 33 33 34 35 32 32 35 33 32 32 33 32 32 31 27 23 22 22 25 23
69 60 54 47 38 44 47 52 46 40 38 36 34 26 24 20 23 19 13 11 19 21 25 29 33 34 31 32 33 32 33 33 34 30 30 30 31 33 31 30 28 29 24 20 21 21 22 18 19
61 54 52 48 27 32 34 43 39 27 37 33 24 21 20 20 15 14 14 13 19 28 30 29 33 31 30 31 32 31 33 33 32 29 30 30 33 35 30 27 28 20 18 19 20 18 15 15 14
63 56 50 36 30 31 29 34 22 29 33 21 22 22 20 20 9 7 12 14 22 25 32 35 30 27 28 31 30 31 34 34 31 29 30 34 36 32 27 25 16 15 16 14 11 10 10 10 13
60 57 45 22 21 30 29 35 21 26 23 25 24 22 17 11 7 9 13 18 23 27 31 31 26 26 28 29 30 32 32 34 31 29 29 31 33 27 23 13 13 14 10 5 7 7 12 13 14
50 43 29 21 31 31 35 32 21 25 27 22 19 20 12 12 7 8 14 20 24 26 27 23 23 25 27 28 30 32 32 31 29 29 27 31 29 20 17 11 11 10 6 4 10 13 14 17 18
48 32 33 30 34 30 34 31 23 26 28 23 20 14 14 10 6 10 15 20 16 15 18 19 21 24 27 28 30 30 31 26 24 26 26 29 23 20 12 9 9 8 4 8 12 16 17 19 19
36 33 34 31 36 37 36 40 16 28 29 23 16 12 11 4 7 13 20 20 12 16 16 18 23 24 27 29 28 28 27 22 22 25 23 25 21 16 10 7 7 5 2 16 16 17 17 18 21
38 35 35 33 39 48 32 38 15 28 21 21 24 14 11 5 8 11 20 15 12 15 17 19 22 23 27 28 27 26 23 21 22 21 24 21 19 11 6 5 2 6 14 19 20 18 19 19 22
41 39 39 44 47 46 28 36 4 9 25 21 18 15 11 8 12 15 22 14 13 16 15 18 20 23 26 25 25 23 18 21 21 19 19 18 13 7 2 4 7 13 19 18 18 19 21 18 23
41 42 43 43 41 40 27 37 10 18 20 23 18 15 14 11 7 14 17 13 16 17 15 17 19 23 23 22 21 16 19 19 19 19 13 17 10 6 3 5 8 14 19 16 20 18 16 14 24
42 45 41 42 43 46 33 35 23 16 29 17 13 15 14 5 7 13 13 12 17 13 13 15 18 19 20 20 17 18 18 19 18 13 12 13 8 4 5 7 9 13 14 18 21 22 21 19 20
48 44 44 46 46 47 39 33 20 24 28 17 13 17 10 9 6 11 10 12 9 10 10 13 17 18 18 17 15 15 16 15 14 11 12 13 8 4 10 8 9 12 16 21 23 23 23 21 17
52 53 53 49 49 49 46 32 20 31 29 19 18 16 11 6 8 11 7 7 11 9 8 13 14 14 17 15 13 13 15 11 16 16 15 13 10 6 12 10 9 11 14 19 22 24 24 23 21
46 46 45 48 47 46 42 28 23 28 29 23 21 16 7 4 7 8 5 5 11 10 8 12 12 14 15 13 12 14 18 11 13 15 14 16 10 8 11 11 10 11 13 15 20 22 22 21 20

GFSSGP_500_spd_033.txt.gz
Wind_Speed
16 16 16 17 15 15 16 19 22 22 22 24 24 23 24 26 29 31 31 31 34 37 37 38 38 37 36 36 36 34 33 34 35 35 33 34 37 36 35 35 35 34 34 35 34 32 31 31 32
17 19 20 20 18 18 19 22 23 22 22 26 28 26 25 26 31 35 34 35 32 33 38 41 40 37 35 35 35 36 33 32 31 32 33 33 33 36 36 36 35 36 36 34 34 34 33 31 33
20 20 20 20 22 23 22 24 25 27 28 28 31 29 27 26 27 28 30 32 30 35 40 43 40 37 38 38 38 35 31 29 28 30 30 32 32 34 36 35 35 34 35 34 34 34 35 34 33
21 23 23 23 25 25 26 28 28 31 31 33 37 35 29 29 27 25 29 33 30 34 39 42 38 37 37 35 32 30 31 32 32 31 30 30 29 28 30 32 33 33 33 34 34 36 38 37 36
26 25 27 25 27 27 28 30 30 32 33 36 39 35 32 29 27 27 26 26 30 33 37 39 35 37 36 33 33 36 34 34 35 36 35 34 35 35 34 31 31 31 33 35 36 36 37 39 39
27 29 30 25 26 27 30 31 32 35 39 40 39 34 31 26 27 27 28 31 31 31 35 38 34 34 36 36 36 36 38 38 37 39 40 40 39 37 35 33 34 35 33 35 36 37 37 38 39
32 32 29 26 23 25 28 33 34 40 39 41 39 33 32 33 32 32 29 27 27 30 35 35 35 33 35 35 36 38 38 39 40 41 40 40 38 37 36 35 36 36 35 36 35 33 31 33 35
41 41 33 28 24 25 32 35 40 41 44 42 40 36 36 34 34 36 35 33 28 31 35 36 34 36 36 38 38 39 40 41 41 38 38 39 37 35 33 33 33 33 32 31 32 32 31 34 35
43 48 42 34 31 28 34 41 39 41 43 43 39 39 42 35 37 36 41 35 30 30 34 34 34 36 39 38 40 40 40 41 38 38 36 34 33 32 32 32 29 28 28 29 32 34 33 32 31
46 50 44 35 34 33 38 43 43 45 46 43 40 41 44 40 40 37 38 33 27 28 30 31 35 38 41 40 39 39 38 38 36 34 32 31 32 31 30 29 28 29 32 29 30 33 32 33 34
54 54 39 38 38 44 42 43 49 48 50 43 42 44 45 46 46 38 31 34 27 25 26 33 36 39 44 43 41 38 35 34 33 31 30 30 32 30 29 29 28 29 28 32 35 35 35 36 35
58 56 47 38 38 46 46 49 46 51 48 42 44 48 48 49 47 39 28 32 31 22 26 33 35 39 44 43 37 34 32 34 34 30 29 31 31 30 29 28 28 30 33 34 32 31 30 29 31
56 58 52 45 45 45 46 48 48 47 43 44 48 51 52 53 51 45 32 34 33 24 28 35 36 34 37 38 33 34 34 34 33 30 30 31 30 30 29 30 29 31 33 32 31 32 31 30 31
51 55 56 56 51 42 42 45 53 40 45 49 55 58 58 56 53 50 35 32 30 28 27 30 31 31 32 34 35 34 35 33 32 31 31 30 29 31 32 30 30 32 32 33 33 32 32 33 33
56 57 59 59 49 45 44 49 48 45 50 57 61 56 57 52 50 49 33 31 29 27 17 17 23 27 31 34 35 34 32 34 32 31 32 28 28 29 29 30 31 32 30 31 33 32 34 33 30
62 62 63 56 48 45 49 55 43 41 53 59 58 55 50 45 43 35 29 31 31 25 18 23 28 33 33 35 33 32 33 32 32 31 33 29 28 29 32 35 34 33 32 28 29 29 26 24 25
68 67 60 52 49 51 50 51 43 41 50 57 49 46 41 31 24 25 26 31 30 24 22 24 28 35 34 33 33 32 32 32 31 32 32 30 29 31 34 37 32 31 31 28 22 21 22 23 25
56 53 55 53 48 53 50 46 44 42 47 49 47 31 23 16 20 23 23 21 23 22 23 25 27 34 34 33 31 31 31 31 30 32 33 31 30 30 35 34 29 29 20 18 20 22 22 22 21
63 65 59 56 53 56 46 47 45 38 40 39 29 18 20 20 19 17 18 20 22 22 25 24 31 33 31 31 30 30 31 30 31 33 32 30 29 31 34 27 26 19 17 17 17 15 12 12 14
61 62 61 60 58 56 49 50 36 35 31 30 21 20 21 17 15 20 20 17 18 23 26 26 27 26 29 28 28 30 30 29 32 30 26 28 28 33 27 26 19 16 15 12 9 5 7 8 9
52 56 55 56 59 50 47 44 40 31 28 25 20 18 20 18 20 20 16 15 19 24 22 20 21 22 25 26 27 29 29 29 31 23 25 26 27 29 26 23 15 15 10 7 5 6 9 8 10
47 44 44 48 55 44 38 49 35 26 26 25 20 13 15 18 23 15 14 15 22 24 17 18 19 22 26 26 29 28 28 29 25 23 25 21 25 27 21 17 11 10 6 4 7 9 11 12 16
37 38 38 44 45 43 42 50 14 22 24 23 24 16 16 17 15 11 13 13 21 16 16 17 20 23 24 27 29 28 28 25 22 24 22 23 22 23 15 10 10 7 4 11 12 14 16 18 19
34 34 35 42 44 50 45 39 19 14 17 24 24 19 19 19 16 12 14 17 19 14 16 17 19 20 23 28 26 27 24 19 22 22 20 18 20 15 9 6 4 0 12 15 16 16 16 16 20
42 36 37 36 41 49 36 34 10 4 18 23 21 23 17 22 18 12 14 16 13 14 17 17 18 19 24 24 24 22 20 22 21 19 18 17 16 8 2 4 3 10 15 17 16 15 16 17 19
37 36 42 41 47 46 27 35 16 14 13 13 25 24 20 20 16 12 14 13 12 15 16 14 16 20 21 22 21 17 20 19 19 17 13 17 10 3 3 6 8 12 15 15 14 13 15 17 17
36 43 36 37 39 33 31 25 17 16 13 24 15 18 22 18 15 14 11 8 12 13 11 10 13 17 18 20 16 16 16 15 19 13 11 12 7 3 7 8 11 12 11 16 17 12 12 17 17
44 31 36 41 44 39 29 27 18 14 18 24 12 20 22 16 15 12 7 6 8 11 8 8 13 13 17 18 14 16 16 12 15 12 12 10 7 8 9 9 10 10 8 15 18 16 15 20 13
50 48 49 44 41 38 32 28 15 15 21 20 16 19 19 15 15 8 6 4 7 10 5 8 11 12 16 16 13 16 15 13 13 13 17 11 9 9 10 11 11 12 11 12 17 17 16 15 15
49 45 39 39 38 36 35 26 17 18 23 24 19 21 17 18 11 5 4 4 6 8 5 8 10 12 15 15 11 14 15 12 13 12 14 12 9 9 8 11 12 13 15 14 14 15 17 18 17